Location: Brad
(46.1333°N, 22.7833°E)
Time: 04:32:21
(UTC+00:00)

CZ-4C R/B - Pass Details

Date: 03 February 2023
Orbit: 456 x 611 km, 98.1° (Epoch: 29 March)

Event Time Altitude Azimuth Distance (km) Brightness Sun altitude
Rises 16:31:52 0° 17° (NNE) 2,709 6.6 -10.0°
Reaches altitude 10° 16:34:05 10° 21° (NNE) 1,783 5.6 -10.3°
Maximum altitude 16:37:51 56° 100° (E) 610 3.2 -11.0°
Drops below altitude 10° 16:41:24 10° 180° (S) 1,680 6.0 -11.6°
Sets 16:43:26 0° 185° (S) 2,534 6.9 -11.9°
